Location: Fort Wayne
(41.1310°N, 85.1290°W)
Time: 20:34:14
(UTC-04:00)

Tiros 1 despin weight - Visible Passes

Search period start: 28 July 2014 00:00
Search period end: 07 August 2014 00:00
Orbit: 602 x 653 km, 48.2° (Epoch: 28 July)

Date Brightness Start Highest point End Pass type
(mag) Time Alt. Az. Time Alt. Az. Time Alt. Az.
28 Jul ? 00:01:43 10° WNW 00:06:06 50° NNE 00:06:34 47° NE visible
28 Jul ? 01:43:35 10° WNW 01:43:46 11° WNW 01:43:46 11° WNW visible
28 Jul ? 22:39:24 10° WNW 22:43:33 35° N 22:47:33 11° ENE visible
29 Jul ? 00:21:15 10° WNW 00:24:46 53° NW 00:24:46 53° NW visible
29 Jul ? 22:59:02 10° WNW 23:03:22 43° NNE 23:05:47 23° ENE visible
30 Jul ? 00:40:51 10° WNW 00:43:00 27° WNW 00:43:00 27° WNW visible
30 Jul ? 21:36:37 10° WNW 21:40:46 33° N 21:44:51 10° ENE visible
30 Jul ? 23:18:35 10° WNW 23:23:04 64° NNE 23:24:03 49° E visible
31 Jul ? 01:00:41 10° WNW 01:01:16 13° W 01:01:16 13° W visible
31 Jul ? 21:56:20 10° WNW 22:00:36 39° NNE 22:04:49 10° E visible
31 Jul ? 23:38:08 10° WNW 23:42:22 73° WSW 23:42:22 73° WSW visible
01 Aug ? 22:15:54 10° WNW 22:20:21 54° NNE 22:23:30 18° E visible
01 Aug ? 23:57:51 10° WNW 00:00:43 32° WSW 00:00:43 32° WSW visible
02 Aug ? 22:35:26 10° WNW 22:39:59 86° NNE 22:41:54 34° ESE visible
03 Aug ? 00:18:00 10° W 00:19:07 15° W 00:19:07 15° W visible
03 Aug ? 22:55:03 10° WNW 22:59:27 53° SW 23:00:20 44° S visible
04 Aug ? 21:32:44 10° WNW 21:37:17 70° NNE 21:41:36 11° ESE visible
04 Aug ? 23:14:58 10° W 23:18:45 27° SW 23:18:50 27° SW visible
05 Aug ? 21:52:18 10° WNW 21:56:49 69° SSW 22:00:09 17° SE visible
05 Aug ? 23:35:49 10° WSW 23:37:23 13° WSW 23:37:23 13° WSW visible
06 Aug ? 22:12:03 10° WNW 22:16:11 35° SW 22:18:46 19° SSE visible
